KB1DML Weather Reports


time (UTC)temp
C
wind
direction
speed
KPH
gust
KPH
rain 1hr
cm
rain 24hr
cm
rain mn
cm
humidity
%
barometer
mb
20220124102520 -3 293 3.2 9.7 0.00 0.00 0.00 82 1009.5
20220124102016 -3 293 4.8 11.3 0.00 0.00 0.00 82 1009.5
20220124101519 -3 293 3.2 9.7 0.00 0.00 0.00 82 1009.4
20220124101019 -3 315 3.2 8.0 0.00 0.00 0.00 82 1009.3
20220124100519 -3 315 4.8 9.7 0.00 0.00 0.00 82 1009.3
20220124100020 -3 293 3.2 6.4 0.00 0.00 0.00 82 1009.2
20220124095516 -3 315 3.2 6.4 0.00 0.00 0.00 82 1009.0
20220124095019 -3 293 1.6 4.8 0.00 0.00 0.00 82 1008.9
20220124094519 -3 293 1.6 9.7 0.00 0.00 0.00 82 1008.9
20220124094017 -2 293 3.2 8.0 0.00 0.00 0.00 82 1008.8
20220124093516 -2 293 1.6 4.8 0.00 0.00 0.00 82 1008.7
20220124093016 -2 293 1.6 4.8 0.00 0.00 0.00 82 1008.6
20220124092516 -2 0.0 3.2 0.00 0.00 0.00 82 1008.6
20220124092019 -2 293 1.6 4.8 0.00 0.00 0.00 82 1008.5
20220124091516 -2 315 1.6 3.2 0.00 0.00 0.00 82 1008.4
20220124091019 -2 293 1.6 3.2 0.00 0.00 0.00 82 1008.5
20220124090520 -2 315 1.6 3.2 0.00 0.00 0.00 82 1008.4
20220124090016 -2 293 1.6 4.8 0.00 0.00 0.00 82 1008.4
20220124085519 -2 225 1.6 3.2 0.00 0.00 0.00 82 1008.4
20220124085016 -2 315 1.6 4.8 0.00 0.00 0.00 82 1008.4
20220124084519 -2 225 1.6 9.7 0.00 0.00 0.00 82 1008.4
20220124084020 -2 270 1.6 6.4 0.00 0.00 0.00 82 1008.3
20220124083516 -2 270 1.6 6.4 0.00 0.00 0.00 82 1008.3
20220124083019 -2 248 1.6 4.8 0.00 0.00 0.00 82 1008.1
20220124082519 -2 248 1.6 6.4 0.00 0.00 0.00 82 1008.1
20220124082017 -2 0.0 3.2 0.00 0.00 0.00 81 1008.0
20220124081519 -2 293 1.6 4.8 0.00 0.00 0.00 81 1008.0
20220124081016 -2 293 1.6 4.8 0.00 0.00 0.00 82 1008.0
20220124080519 -2 225 1.6 6.4 0.00 0.00 0.00 82 1007.9
20220124080016 -2 293 1.6 6.4 0.00 0.00 0.00 82 1007.8
20220124075520 -2 293 1.6 3.2 0.00 0.00 0.00 81 1007.8
20220124075019 -2 293 1.6 4.8 0.00 0.00 0.00 81 1007.8
20220124074516 -2 248 1.6 4.8 0.00 0.00 0.00 81 1007.8
20220124074016 -2 270 1.6 4.8 0.00 0.00 0.00 81 1007.7
20220124073519 -2 225 1.6 6.4 0.00 0.00 0.00 81 1007.8
20220124073019 -2 270 1.6 8.0 0.00 0.00 0.00 81 1007.7
20220124072516 -2 225 1.6 8.0 0.00 0.00 0.00 81 1007.8
20220124072019 -1 225 1.6 4.8 0.00 0.00 0.00 81 1007.7
20220124071519 -1 270 1.6 4.8 0.00 0.00 0.00 81 1007.7
20220124071019 -1 293 1.6 6.4 0.00 0.00 0.00 81 1007.8
20220124070516 -1 293 3.2 6.4 0.00 0.00 0.00 81 1007.7
20220124070019 -1 225 1.6 4.8 0.00 0.00 0.00 80 1007.6
20220124065519 -1 270 1.6 4.8 0.00 0.00 0.00 80 1007.7
20220124065019 -1 315 1.6 6.4 0.00 0.00 0.00 80 1007.5
20220124064516 -1 225 1.6 3.2 0.00 0.00 0.00 80 1007.6
20220124064019 -1 293 1.6 3.2 0.00 0.00 0.00 80 1007.5
20220124063519 -1 225 1.6 4.8 0.00 0.00 0.00 80 1007.6
20220124063019 -1 225 1.6 4.8 0.00 0.00 0.00 80 1007.6
20220124062517 -1 0.0 3.2 0.00 0.00 0.00 80 1007.6
20220124062019 -1 203 1.6 3.2 0.00 0.00 0.00 80 1007.6
20220124061519 -1 225 1.6 4.8 0.00 0.00 0.00 80 1007.6
20220124061019 -1 225 1.6 4.8 0.00 0.00 0.00 79 1007.5
20220124060520 -1 203 1.6 3.2 0.00 0.00 0.00 79 1007.5
20220124060019 -1 225 1.6 4.8 0.00 0.00 0.00 79 1007.6
20220124055516 -1 225 1.6 4.8 0.00 0.00 0.00 79 1007.6
20220124055016 -1 0.0 1.6 0.00 0.00 0.00 79 1007.5
20220124054519 -1 225 1.6 3.2 0.00 0.00 0.00 78 1007.5
20220124054019 -1 0.0 3.2 0.00 0.00 0.00 78 1007.5
20220124053517 -1 0.0 3.2 0.00 0.00 0.00 78 1007.6
20220124053019 -1 225 1.6 3.2 0.00 0.00 0.00 78 1007.6
20220124052519 -1 225 1.6 3.2 0.00 0.00 0.00 77 1007.6
20220124052016 -1 0.0 1.6 0.00 0.00 0.00 77 1007.7
20220124051519 -1 0.0 3.2 0.00 0.00 0.00 77 1007.8
20220124051019 -1 0.0 1.6 0.00 0.00 0.00 76 1007.7
20220124050516 -1 225 1.6 3.2 0.00 0.00 0.00 76 1007.8
20220124050019 -1 203 1.6 3.2 0.00 0.00 0.00 76 1007.8
20220124045519 -1 0.0 3.2 0.00 0.00 0.00 76 1007.7
20220124045016 -1 248 1.6 4.8 0.00 0.00 0.00 75 1007.7
20220124044520 -1 225 1.6 4.8 0.00 0.00 0.00 75 1007.7
20220124044020 -1 225 1.6 3.2 0.00 0.00 0.00 74 1007.8
20220124043519 -1 270 1.6 3.2 0.00 0.00 0.00 74 1007.9
20220124043019 -1 225 1.6 4.8 0.00 0.00 0.00 74 1007.9
20220124042517 -1 0.0 3.2 0.00 0.00 0.00 73 1008.0
20220124042020 -1 293 1.6 4.8 0.00 0.00 0.00 73 1008.0
20220124041519 -1 293 1.6 4.8 0.00 0.00 0.00 73 1008.0
20220124041016 -1 0.0 3.2 0.00 0.00 0.00 73 1007.9
20220124040519 -1 293 1.6 4.8 0.00 0.00 0.00 72 1008.0
20220124040020 -1 293 1.6 6.4 0.00 0.00 0.00 72 1008.1
20220124035519 -1 293 3.2 8.0 0.00 0.00 0.00 71 1008.1
20220124035020 -1 315 3.2 9.7 0.00 0.00 0.00 70 1008.1
20220124034519 -1 225 1.6 3.2 0.00 0.00 0.00 70 1008.1
20220124034019 -1 270 3.2 8.0 0.00 0.00 0.00 69 1008.1
20220124033520 0 270 1.6 9.7 0.00 0.00 0.00 69 1008.0
20220124033019 0 293 3.2 6.4 0.00 0.00 0.00 68 1008.0
20220124032517 0 293 6.4 14.5 0.00 0.00 0.00 67 1008.1
20220124032020 0 293 3.2 9.7 0.00 0.00 0.00 65 1008.0
20220124031516 0 270 4.8 14.5 0.00 0.00 0.00 64 1008.0
20220124031020 0 293 4.8 11.3 0.00 0.00 0.00 63 1008.1
20220124030519 0 293 3.2 9.7 0.00 0.00 0.00 62 1008.0
20220124030019 0 315 4.8 12.9 0.00 0.00 0.00 60 1007.9
20220124025520 0 315 6.4 14.5 0.00 0.00 0.00 59 1007.9
20220124025019 0 315 3.2 9.7 0.00 0.00 0.00 57 1007.8
20220124024516 0 315 4.8 11.3 0.00 0.00 0.00 56 1007.8
20220124024019 0 293 3.2 11.3 0.00 0.00 0.00 56 1007.9
20220124023516 0 293 4.8 12.9 0.00 0.00 0.00 57 1007.8
20220124023019 0 293 3.2 11.3 0.00 0.00 0.00 59 1007.6
20220124022520 0 225 3.2 6.4 0.00 0.00 0.00 60 1007.5
20220124022017 0 225 3.2 8.0 0.00 0.00 0.00 59 1007.4
20220124021519 0 225 1.6 8.0 0.00 0.00 0.00 59 1007.4
20220124021020 0 225 3.2 9.7 0.00 0.00 0.00 59 1007.4
20220124020517 0 225 3.2 6.4 0.00 0.00 0.00 59 1007.4
20220124020017 0 225 4.8 8.0 0.00 0.00 0.00 58 1007.4
20220124015520 0 225 3.2 11.3 0.00 0.00 0.00 58 1007.4
20220124015016 0 225 4.8 11.3 0.00 0.00 0.00 58 1007.5
20220124014519 0 225 4.8 12.9 0.00 0.00 0.00 57 1007.5
20220124014016 0 225 4.8 17.7 0.00 0.00 0.00 57 1007.6
20220124013520 0 225 4.8 11.3 0.00 0.00 0.00 56 1007.6
20220124013017 0 225 3.2 9.7 0.00 0.00 0.00 55 1007.6
20220124012516 0 225 4.8 14.5 0.00 0.00 0.00 55 1007.5
20220124012016 0 225 3.2 8.0 0.00 0.00 0.00 55 1007.4
20220124011517 0 225 4.8 17.7 0.00 0.00 0.00 54 1007.5
20220124011019 0 225 4.8 9.7 0.00 0.00 0.00 54 1007.5
20220124010516 0 225 4.8 12.9 0.00 0.00 0.00 53 1007.6
20220124010019 0 225 3.2 12.9 0.00 0.00 0.00 53 1007.6
20220124005519 0 225 4.8 12.9 0.00 0.00 0.00 53 1007.6
20220124005017 0 225 6.4 17.7 0.00 0.00 0.00 52 1007.6
20220124004519 0 225 6.4 14.5 0.00 0.00 0.00 52 1007.6
20220124004019 0 225 4.8 12.9 0.00 0.00 0.00 52 1007.5
20220124003519 0 225 3.2 11.3 0.00 0.00 0.00 51 1007.6
20220124003019 0 225 6.4 14.5 0.00 0.00 0.00 51 1007.5
20220124002519 0 225 4.8 14.5 0.00 0.00 0.00 51 1007.5
20220124002017 0 225 6.4 14.5 0.00 0.00 0.00 50 1007.4
20220124001519 0 225 4.8 11.3 0.00 0.00 0.00 49 1007.4
20220124001016 0 225 6.4 14.5 0.00 0.00 0.00 49 1007.3
20220124000519 0 225 4.8 9.7 0.00 0.00 0.00 48 1007.3
20220124000019 0 225 3.2 8.0 0.00 0.00 0.00 48 1007.2
20220123235516 0 203 3.2 8.0 0.00 0.00 0.00 47 1007.2
20220123235017 0 203 3.2 8.0 0.00 0.00 0.00 47 1007.1
20220123234520 0 203 1.6 6.4 0.00 0.00 0.00 47 1007.0
20220123234019 0 180 1.6 6.4 0.00 0.00 0.00 47 1006.9
20220123233516 0 225 1.6 6.4 0.00 0.00 0.00 47 1007.0
20220123233019 0 180 1.6 8.0 0.00 0.00 0.00 47 1006.9
20220123232517 0 180 3.2 8.0 0.00 0.00 0.00 47 1006.9
20220123232016 0 135 1.6 4.8 0.00 0.00 0.00 47 1006.9
20220123231516 0 180 3.2 8.0 0.00 0.00 0.00 47 1006.9
20220123231016 0 158 1.6 6.4 0.00 0.00 0.00 47 1007.0
20220123230519 1 180 3.2 6.4 0.00 0.00 0.00 46 1006.9
20220123230019 1 203 1.6 6.4 0.00 0.00 0.00 46 1006.9
20220123225516 1 180 3.2 8.0 0.00 0.00 0.00 46 1006.8
20220123225019 1 203 3.2 9.7 0.00 0.00 0.00 46 1006.7
20220123224516 1 203 3.2 8.0 0.00 0.00 0.00 46 1006.8
20220123224019 1 203 3.2 8.0 0.00 0.00 0.00 45 1006.8
20220123223516 1 180 3.2 9.7 0.00 0.00 0.00 45 1006.8
20220123223019 1 203 3.2 8.0 0.00 0.00 0.00 45 1006.7
20220123222519 1 203 3.2 8.0 0.00 0.00 0.00 45 1006.7
20220123222020 1 203 3.2 8.0 0.00 0.00 0.00 44 1006.7
20220123221519 1 203 4.8 9.7 0.00 0.00 0.00 44 1006.7
20220123221019 1 225 3.2 9.7 0.00 0.00 0.00 45 1006.6
20220123220519 1 203 1.6 6.4 0.00 0.00 0.00 44 1006.6
20220123220016 1 203 3.2 8.0 0.00 0.00 0.00 44 1006.7
20220123215519 1 158 1.6 4.8 0.00 0.00 0.00 44 1006.7
20220123215020 1 225 4.8 11.3 0.00 0.00 0.00 44 1006.7
20220123214519 1 225 3.2 11.3 0.00 0.00 0.00 43 1006.7
20220123214019 1 225 3.2 9.7 0.00 0.00 0.00 43 1006.6
20220123213516 1 225 3.2 9.7 0.00 0.00 0.00 43 1006.6
20220123213019 1 225 3.2 6.4 0.00 0.00 0.00 42 1006.5
20220123212519 1 225 4.8 11.3 0.00 0.00 0.00 42 1006.4
20220123212016 1 225 3.2 6.4 0.00 0.00 0.00 42 1006.4
20220123211519 1 225 4.8 8.0 0.00 0.00 0.00 42 1006.5
20220123211020 1 225 3.2 12.9 0.00 0.00 0.00 42 1006.4
20220123210516 1 225 4.8 9.7 0.00 0.00 0.00 42 1006.4
20220123210019 1 225 3.2 11.3 0.00 0.00 0.00 42 1006.3
20220123205519 1 225 4.8 9.7 0.00 0.00 0.00 42 1006.4
20220123205020 1 225 4.8 12.9 0.00 0.00 0.00 41 1006.4
20220123204519 1 225 3.2 8.0 0.00 0.00 0.00 41 1006.4
20220123204019 1 225 6.4 17.7 0.00 0.00 0.00 41 1006.4
20220123203516 1 225 6.4 16.1 0.00 0.00 0.00 41 1006.3
20220123203020 1 225 6.4 16.1 0.00 0.00 0.00 40 1006.4
20220123202519 1 225 4.8 12.9 0.00 0.00 0.00 41 1006.4
20220123202016 1 225 4.8 12.9 0.00 0.00 0.00 40 1006.5
20220123201519 1 225 6.4 14.5 0.00 0.00 0.00 41 1006.5
20220123201020 1 225 4.8 12.9 0.00 0.00 0.00 41 1006.5
20220123200519 1 225 4.8 11.3 0.00 0.00 0.00 40 1006.5
20220123200016 1 225 4.8 11.3 0.00 0.00 0.00 40 1006.6
20220123195517 1 225 4.8 11.3 0.00 0.00 0.00 41 1006.7
20220123195019 1 225 4.8 11.3 0.00 0.00 0.00 40 1006.7
20220123194519 1 225 4.8 9.7 0.00 0.00 0.00 40 1006.7
20220123194019 1 225 6.4 12.9 0.00 0.00 0.00 40 1006.7
20220123193516 2 225 3.2 9.7 0.00 0.00 0.00 41 1006.8
20220123193016 1 225 6.4 14.5 0.00 0.00 0.00 42 1006.8
20220123192520 1 225 4.8 14.5 0.00 0.00 0.00 41 1006.9
20220123192019 1 203 4.8 9.7 0.00 0.00 0.00 41 1006.9
20220123191519 1 225 8.0 12.9 0.00 0.00 0.00 40 1007.0
20220123191019 1 203 6.4 16.1 0.00 0.00 0.00 40 1007.0
20220123190516 2 225 6.4 14.5 0.00 0.00 0.00 40 1007.1
20220123190016 1 225 4.8 17.7 0.00 0.00 0.00 41 1007.1
20220123185520 1 225 4.8 16.1 0.00 0.00 0.00 41 1007.2
20220123185019 2 225 8.0 20.9 0.00 0.00 0.00 40 1007.3
20220123184516 2 225 4.8 14.5 0.00 0.00 0.00 41 1007.3
20220123184016 2 225 8.0 19.3 0.00 0.00 0.00 40 1007.3
20220123183516 2 225 4.8 11.3 0.00 0.00 0.00 41 1007.3
20220123183019 1 225 4.8 14.5 0.00 0.00 0.00 41 1007.4
20220123182519 1 225 8.0 20.9 0.00 0.00 0.00 41 1007.5
20220123182016 1 225 9.7 20.9 0.00 0.00 0.00 40 1007.6
20220123181519 1 225 4.8 17.7 0.00 0.00 0.00 41 1007.7
20220123181019 1 225 6.4 12.9 0.00 0.00 0.00 42 1007.8
20220123180516 1 225 8.0 14.5 0.00 0.00 0.00 42 1007.9
20220123180019 1 225 4.8 14.5 0.00 0.00 0.00 43 1008.0
20220123175516 1 225 6.4 14.5 0.00 0.00 0.00 43 1008.1
20220123175017 1 225 4.8 14.5 0.00 0.00 0.00 42 1008.2
20220123174516 1 225 6.4 16.1 0.00 0.00 0.00 43 1008.2
20220123174016 1 225 4.8 11.3 0.00 0.00 0.00 44 1008.4
20220123173516 1 225 6.4 17.7 0.00 0.00 0.00 43 1008.6
20220123173020 1 225 6.4 12.9 0.00 0.00 0.00 43 1008.6
20220123172516 1 225 4.8 11.3 0.00 0.00 0.00 43 1008.6
20220123172019 1 225 6.4 14.5 0.00 0.00 0.00 44 1008.7
20220123171519 0 225 6.4 12.9 0.00 0.00 0.00 44 1008.8
20220123171016 1 225 4.8 9.7 0.00 0.00 0.00 44 1008.8
20220123170516 1 225 4.8 12.9 0.00 0.00 0.00 45 1008.9
20220123170016 0 225 4.8 11.3 0.00 0.00 0.00 46 1009.0
20220123165517 0 225 4.8 12.9 0.00 0.00 0.00 45 1009.0
20220123165019 0 225 4.8 11.3 0.00 0.00 0.00 46 1009.2
20220123164516 0 225 6.4 16.1 0.00 0.00 0.00 46 1009.3
20220123164019 0 225 6.4 14.5 0.00 0.00 0.00 47 1009.4
20220123163516 0 225 4.8 12.9 0.00 0.00 0.00 48 1009.6
20220123163020 0 225 6.4 14.5 0.00 0.00 0.00 48 1009.8
20220123162516 0 225 4.8 12.9 0.00 0.00 0.00 49 1009.9
20220123162016 0 225 6.4 12.9 0.00 0.00 0.00 50 1010.1
20220123161516 0 225 4.8 16.1 0.00 0.00 0.00 50 1010.2
20220123161019 -1 225 6.4 12.9 0.00 0.00 0.00 51 1010.3
20220123160516 -1 225 4.8 12.9 0.00 0.00 0.00 50 1010.4
20220123160020 -1 225 4.8 11.3 0.00 0.00 0.00 51 1010.4
20220123155519 -1 225 4.8 14.5 0.00 0.00 0.00 51 1010.5
20220123155019 -1 225 4.8 12.9 0.00 0.00 0.00 51 1010.6
20220123154520 -1 225 3.2 8.0 0.00 0.00 0.00 52 1010.6
20220123154019 -1 225 3.2 9.7 0.00 0.00 0.00 52 1010.6
20220123153520 -1 225 3.2 8.0 0.00 0.00 0.00 53 1010.6
20220123153019 -1 225 4.8 9.7 0.00 0.00 0.00 53 1010.7
20220123152519 -2 225 3.2 6.4 0.00 0.00 0.00 54 1010.8
20220123152016 -2 225 6.4 11.3 0.00 0.00 0.00 55 1011.0
20220123151519 -2 225 4.8 11.3 0.00 0.00 0.00 56 1011.1
20220123151019 -2 225 4.8 11.3 0.00 0.00 0.00 56 1011.1
20220123150516 -2 225 3.2 9.7 0.00 0.00 0.00 57 1011.2
20220123150017 -2 225 3.2 8.0 0.00 0.00 0.00 58 1011.1
20220123145519 -3 225 3.2 8.0 0.00 0.00 0.00 59 1011.2
20220123145019 -3 225 3.2 8.0 0.00 0.00 0.00 61 1011.3
20220123144519 -3 225 3.2 8.0 0.00 0.00 0.00 63 1011.3
20220123144020 -3 225 3.2 8.0 0.00 0.00 0.00 65 1011.2
20220123143519 -4 225 3.2 9.7 0.00 0.00 0.00 65 1011.2
20220123143016 -4 225 3.2 8.0 0.00 0.00 0.00 65 1011.4
20220123142519 -4 225 3.2 8.0 0.00 0.00 0.00 65 1011.4
20220123142019 -4 225 3.2 9.7 0.00 0.00 0.00 65 1011.4
20220123141517 -4 225 3.2 11.3 0.00 0.00 0.00 65 1011.4
20220123141019 -4 225 4.8 9.7 0.00 0.00 0.00 66 1011.4
20220123140519 -5 225 6.4 14.5 0.00 0.00 0.00 66 1011.5
20220123140016 -5 225 4.8 14.5 0.00 0.00 0.00 67 1011.6
20220123135519 -5 225 4.8 11.3 0.00 0.00 0.00 67 1011.6
20220123135020 -5 225 4.8 9.7 0.00 0.00 0.00 68 1011.7
20220123134516 -5 225 3.2 11.3 0.00 0.00 0.00 68 1011.7
20220123134019 -5 225 4.8 11.3 0.00 0.00 0.00 68 1011.7
20220123133519 -5 225 6.4 12.9 0.00 0.00 0.00 68 1011.7
20220123133016 -5 225 4.8 11.3 0.00 0.00 0.00 69 1011.8
20220123132522 -5 225 4.8 8.0 0.00 0.00 0.00 70 1011.9
20220123132016 -5 225 3.2 4.8 0.00 0.00 0.00 70 1011.9
20220123131516 -5 225 4.8 11.3 0.00 0.00 0.00 70 1011.9
20220123131020 -5 225 4.8 12.9 0.00 0.00 0.00 71 1012.0
20220123130519 -5 225 3.2 9.7 0.00 0.00 0.00 71 1012.1
20220123130016 -5 225 3.2 6.4 0.00 0.00 0.00 71 1012.1
20220123125519 -5 225 1.6 6.4 0.00 0.00 0.00 71 1012.2
20220123125019 -5 225 3.2 8.0 0.00 0.00 0.00 72 1012.3
20220123124519 -5 225 4.8 8.0 0.00 0.00 0.00 72 1012.4
20220123124019 -5 225 4.8 11.3 0.00 0.00 0.00 72 1012.5
20220123123519 -5 225 4.8 12.9 0.00 0.00 0.00 73 1012.5
20220123123017 -5 225 3.2 6.4 0.00 0.00 0.00 73 1012.6
20220123122516 -5 225 4.8 9.7 0.00 0.00 0.00 73 1012.6
20220123122019 -5 225 3.2 8.0 0.00 0.00 0.00 74 1012.6
20220123121519 -5 225 1.6 6.4 0.00 0.00 0.00 74 1012.7
20220123121016 -5 225 3.2 6.4 0.00 0.00 0.00 74 1012.7
20220123120520 -5 225 1.6 8.0 0.00 0.00 0.00 75 1012.9
20220123120019 -5 225 3.2 9.7 0.00 0.00 0.00 75 1012.8
20220123115519 -6 225 3.2 8.0 0.00 0.00 0.00 75 1012.8
20220123115016 -6 225 3.2 8.0 0.00 0.00 0.00 75 1012.9
20220123114519 -6 225 4.8 11.3 0.00 0.00 0.00 75 1012.8
20220123114019 -6 225 4.8 12.9 0.00 0.00 0.00 75 1012.7
20220123113519 -5 225 3.2 9.7 0.00 0.00 0.00 75 1012.8
20220123113017 -5 225 4.8 11.3 0.00 0.00 0.00 75 1012.7
20220123112516 -5 225 3.2 8.0 0.00 0.00 0.00 75 1012.6
20220123112019 -5 225 4.8 8.0 0.00 0.00 0.00 75 1012.5
20220123111516 -5 225 3.2 8.0 0.00 0.00 0.00 75 1012.6
20220123111019 -5 225 3.2 8.0 0.00 0.00 0.00 75 1012.5
20220123110520 -5 225 3.2 9.7 0.00 0.00 0.00 75 1012.6
20220123110016 -5 225 3.2 9.7 0.00 0.00 0.00 75 1012.6
20220123105519 -5 225 3.2 11.3 0.00 0.00 0.00 75 1012.6
20220123105020 -5 225 4.8 9.7 0.00 0.00 0.00 75 1012.5
20220123104520 -5 225 4.8 9.7 0.00 0.00 0.00 75 1012.5
20220123104019 -5 225 4.8 8.0 0.00 0.00 0.00 75 1012.5
20220123103516 -5 203 4.8 9.7 0.00 0.00 0.00 75 1012.5
20220123103019 -5 225 3.2 8.0 0.00 0.00 0.00 75 1012.6